Station 45006 (LLNR 16540) - WEST SUPERIOR - 30NM NE of Outer Island, WI Image indicating link to RSS feed of recent meteorological observations for station 45006


Conditions at 45006 as of
(4:00 am EDT)
0800 GMT on 06/14/2024:
     

Click on the graph icon in the table below to see a time series plot of the last five days of that observation.

5-day plot - Wind Direction Wind Direction (WDIR):WNW ( 290 deg true )
5-day plot - Wind Speed Wind Speed (WSPD):2.0 m/s
5-day plot - Wind Gust Wind Gust (GST):3.0 m/s
5-day plot - Atmospheric Pressure Atmospheric Pressure (PRES):1014.3 mb
5-day plot - Pressure Tendency Pressure Tendency (PTDY): +1.1 mb ( Rising )
5-day plot - Air Temperature Air Temperature (ATMP): 6.6 °C
5-day plot - Water Temperature Water Temperature (WTMP): 3.9 °C
5-day plot - Dew Point Dew Point (DEWP): 6.2 °C
5-day plot - Wind Chill Wind Chill (CHILL): 5.2 °C
5-day plot - Wind Speed at 10 Meters Wind Speed at 10 meters (WSPD10M): 2 m/s
5-day plot - Wind Speed at 20 Meters Wind Speed at 20 meters (WSPD20M): 3 m/s
5-day plot -  Wind Speed, Wind Gust and Atmospheric Pressure Combined plot of Wind Speed, Gust, and Air Pressure
Supplemental Measurements
Highest 1-minute Wind Speed
Time (EDT)5-day plot - 1-Minute Wind Speed WSPD 5-day plot - 1-Minute Wind Direction WDIR
3:51 am 2 m/s-
Previous observations
TIME
(EDT)
5-day plot - Wind Direction
WDIR
 
5-day plot - Wind Speed
WSPD
m/s
5-day plot - Wind Gust
GST
m/s
5-day plot - Wave Height
WVHT
m
5-day plot - Dominant Wave Period
DPD
sec
5-day plot - Average Wave Period
APD
sec
5-day plot - Mean Wave Direction
MWD
 
5-day plot - Atmospheric Pressure
PRES
mb
5-day plot - Pressure Tendency
PTDY
mb
5-day plot - Air Temperature
ATMP
°C
5-day plot - Water Temperature
WTMP
°C
5-day plot - Dew Point
DEWP
°C
5-day plot - Salinity
SAL
psu
5-day plot - Visibility
VIS
km
5-day plot - Tide (above MLLW)
TIDE
m
2024-06-14 03:50 am W 2.0 3.0----1014.4- 6.4 3.9 6.0---
2024-06-14 03:40 am W 2.0 3.0----1014.4- 6.2 3.9 5.8---
2024-06-14 03:30 am W 3.0 3.0----1014.4- 6.4 3.9 6.0---
2024-06-14 03:20 am W 3.0 3.0----1014.2- 6.3 3.9 5.9---
2024-06-14 03:10 am W 3.0 3.0----1014.2- 6.1 3.9 5.7---
2024-06-14 03:00 am W 3.0 3.0----1014.1 +1.5 6.1 3.9 5.7---
2024-06-14 02:50 amWNW 3.0 4.0----1014.1- 6.5 3.9 6.1---
2024-06-14 02:40 am W 3.0 4.0----1013.8- 6.6 3.9 6.2---
2024-06-14 02:30 amWNW 3.0 4.0----1013.8- 7.3 3.9 6.9---
2024-06-14 02:20 amWNW 4.0 4.0----1013.6- 7.1 3.9 6.7---
2024-06-14 02:10 amWNW 3.0 4.0----1013.7- 6.4 3.9 6.0---
2024-06-14 02:00 am W 3.0 4.0----1013.6 +1.2 6.3 3.9 5.9---
2024-06-14 01:50 am W 4.0 4.0----1013.5- 6.4 3.9 6.0---
2024-06-14 01:40 am W 3.0 4.0----1013.5- 6.5 3.9 6.1---
2024-06-14 01:30 am W 3.0 4.0----1013.6- 6.2 3.9 5.8---
2024-06-14 01:20 am W 3.0 3.0----1013.4- 5.9 3.9 5.5---
2024-06-14 01:10 amWNW 3.0 3.0----1013.2- 6.5 3.9 6.0---
2024-06-14 01:00 amWNW 3.0 4.0----1013.1 +1.8 6.7 3.9 6.3---
2024-06-14 12:50 am W 3.0 4.0----1013.0- 6.4 3.9 5.8---
2024-06-14 12:40 am W 3.0 4.0----1012.9- 6.6 3.9 5.9---
2024-06-14 12:30 am W 4.0 5.0----1012.9- 6.7 3.9 5.7---
2024-06-14 12:20 amWNW 4.0 4.0----1012.7- 7.3 3.9 6.3---
2024-06-14 12:10 amWNW 3.0 4.0----1012.6- 7.0 3.9 6.1---
2024-06-14 12:00 am W 3.0 3.0----1012.5 +1.7 6.4 3.9 5.8---
2024-06-13 11:50 pm W 3.0 4.0----1012.5- 6.4 3.9 5.6---
2024-06-13 11:40 pmWNW 3.0 4.0----1012.5- 6.5 3.9 5.8---
2024-06-13 11:30 pm W 4.0 4.0----1012.5- 6.5 3.9 5.6---
2024-06-13 11:20 pm W 3.0 4.0----1012.5- 6.9- 5.9---
2024-06-13 11:10 pm W 4.0 4.0----1012.4- 6.8 3.9 6.2---
2024-06-13 11:00 pmWSW 3.0 4.0----1012.4 +1.8 6.2 3.9 5.5---
2024-06-13 10:50 pm W 3.0 3.0----1012.2- 6.7 3.9 6.0---
2024-06-13 10:40 pmWNW 3.0 3.0----1012.0- 7.2 3.9 6.1---
2024-06-13 10:30 pmWNW 3.0 4.0----1011.7- 8.1 4.0 6.7---
2024-06-13 10:20 pmWNW 3.0 4.0----1011.7- 8.6 3.9 7.0---
2024-06-13 10:10 pmWNW 3.0 3.0----1011.5- 8.3 3.9 6.6---
2024-06-13 10:00 pmWNW 3.0 4.0----1011.4 +1.3 8.8 3.9 6.8---
2024-06-13 09:50 pm W 4.0 4.0----1011.2- 9.3 3.9 6.9---
2024-06-13 09:40 pm W 5.0 6.0----1011.2- 9.1 3.9 6.9---
2024-06-13 09:30 pm W 4.0 6.0----1011.0- 8.2 3.9 6.3---
2024-06-13 09:20 pm W 4.0 5.0----1010.9- 7.8 3.9 5.9---
2024-06-13 09:10 pm W 3.0 4.0----1010.9- 7.4 3.9 5.8---
2024-06-13 09:00 pmWSW 3.0 4.0----1011.0 +1.1 7.1 3.9 5.7---
2024-06-13 08:50 pmWSW 4.0 5.0----1010.9- 7.4 3.9 5.9---
2024-06-13 08:40 pmWSW 5.0 6.0----1010.8- 7.8 3.9 6.0---
2024-06-13 08:30 pmWSW 5.0 6.0----1010.7- 8.7 3.9 6.6---
2024-06-13 08:20 pmWSW 6.0 7.0----1010.7- 8.9 3.9 6.7---
2024-06-13 08:10 pmWSW 6.0 7.0----1010.6- 9.1 4.0 6.7---
2024-06-13 08:00 pmWSW 6.0 7.0----1010.6 +0.7 8.4 4.0 6.7---
2024-06-13 07:50 pmWSW 7.0 8.0----1010.8- 8.3- 6.5---
2024-06-13 07:40 pmWSW 7.0 8.0----1010.9- 7.9 4.0 6.4---
2024-06-13 07:30 pmWSW 7.0 8.0----1010.7- 9.0 3.9 6.6---
2024-06-13 07:20 pm W 6.0 7.0----1010.4- 8.7 4.0 6.6---
2024-06-13 07:10 pm W 5.0 6.0----1010.1- 8.4 4.0 5.9---
2024-06-13 07:00 pm W 4.0 5.0----1010.0 +1.3 8.2 4.0 5.7---
2024-06-13 06:50 pmWNW 5.0 6.0----1009.9- 9.5 4.0 5.7---
2024-06-13 06:40 pm W 5.0 6.0----1009.7- 11.6 4.0 7.5---
2024-06-13 06:30 pm W 5.0 7.0----1009.7- 10.6 4.0 7.3---
2024-06-13 06:20 pm W 6.0 8.0----1010.2- 10.8 4.0 7.1---
2024-06-13 06:10 pm W 5.0 8.0----1010.2- 10.2 4.0 6.9---
2024-06-13 06:00 pm W 4.0 5.0----1009.9 +1.3 9.7 4.0 6.4---
2024-06-13 05:50 pm W 3.0 4.0----1009.7- 9.8- 6.2---
2024-06-13 05:40 pm W 4.0 4.0----1009.7- 9.3 4.0 6.1---
2024-06-13 05:30 pm W 4.0 5.0----1009.8- 9.5 4.0 6.2---
2024-06-13 05:20 pm W 5.0 6.0----1010.1- 8.5- 5.8---
2024-06-13 05:10 pmWSW 6.0 9.0----1010.1- 8.3 4.0 5.7---
2024-06-13 05:00 pmWSW 5.0 8.0----1010.0 +2.6 8.7 4.0 5.6---
2024-06-13 04:50 pm W 3.0 4.0----1009.3- 9.8 4.1 6.0---
2024-06-13 04:40 pm W 2.0 4.0----1009.3- 10.1 4.0 6.1---
2024-06-13 04:30 pm W 3.0 5.0----1009.1- 9.4 4.0 6.0---
2024-06-13 04:20 pmWNW 3.0 4.0----1009.0- 9.3 4.0 5.9---
2024-06-13 04:10 pm NW 4.0 5.0----1009.0- 9.2 4.0 5.7---
2024-06-13 04:00 pm NW 4.0 5.0----1008.8 +2.1 9.5 4.0 5.7---
2024-06-13 03:50 pm NW 5.0 6.0----1008.8- 9.9 4.0 5.6---
2024-06-13 03:40 pm NW 5.0 6.0----1008.6- 11.0 4.0 5.6---
2024-06-13 03:30 pm NW 6.0 7.0----1008.4- 10.2 4.0 5.8---
2024-06-13 03:20 pmWNW 8.0 9.0 0.5 43.2WSW1008.4- 10.3 4.0 6.2---
2024-06-13 03:10 pm W 8.0 11.0----1008.5- 10.0 4.0 6.4---
2024-06-13 03:00 pmWSW 7.0 10.0----1008.7 +2.1 7.9 4.1 5.8---
2024-06-13 02:50 pmWSW 7.0 8.0----1007.8- 8.2 4.1 6.2---
2024-06-13 02:40 pmWSW 7.0 8.0----1007.7- 8.0 4.1 6.4---
2024-06-13 02:30 pm SW 7.0 8.0----1007.4- 8.1 4.0 6.7---
2024-06-13 02:20 pm SW 6.0 7.0----1007.4- 8.0- 7.1---
2024-06-13 02:10 pm SW 6.0 7.0----1007.3- 7.8 4.0 7.3---
2024-06-13 02:00 pm SW 6.0 7.0----1007.4 +1.6 7.3 4.0 6.9---
2024-06-13 01:50 pmWSW 6.0 7.0----1007.3- 6.8 4.0 6.4---
2024-06-13 01:40 pmWSW 6.0 7.0----1007.3- 6.8 4.0 6.4---
2024-06-13 01:30 pmWSW 5.0 6.0----1007.1- 6.6 4.0 6.2---
2024-06-13 01:20 pm SW 5.0 6.0----1007.1- 6.9 4.0 6.5---
2024-06-13 01:10 pm SW 6.0 7.0----1007.0- 6.8 4.0 6.4---
2024-06-13 01:00 pmWSW 5.0 6.0----1006.8 +1.4 6.9 4.0 6.5---
2024-06-13 12:50 pmWSW 5.0 6.0----1006.6- 7.3 4.1 6.9---
2024-06-13 12:40 pm W 5.0 7.0----1006.4- 7.6 4.0 7.2---
2024-06-13 12:30 pmWSW 5.0 6.0----1006.2- 7.3 4.0 6.9---
2024-06-13 12:20 pmWSW 5.0 6.0----1006.4- 7.4 4.0 7.0---
2024-06-13 12:10 pmWSW 5.0 6.0----1006.5- 7.3 4.0 6.9---
2024-06-13 12:00 pmWSW 5.0 5.0----1006.4 +1.8 7.0 4.1 6.6---
2024-06-13 11:50 amWSW 4.0 5.0----1006.4- 6.5 4.0 6.1---
2024-06-13 11:40 amWSW 4.0 5.0----1006.3- 6.4 4.0 6.0---
2024-06-13 11:30 amWSW 4.0 4.0----1006.1- 6.4 4.0 6.0---
2024-06-13 11:20 am W 4.0 5.0----1006.0- 6.4 4.0 6.0---
2024-06-13 11:10 amWSW 4.0 5.0----1005.9- 6.4 4.0 6.0---
2024-06-13 11:00 amWSW 5.0 6.0----1005.7 +1.9 6.7 4.0 6.3---
2024-06-13 10:50 am W 4.0 5.0----1005.7- 6.8 4.0 6.4---
2024-06-13 10:40 amWSW 4.0 5.0----1005.2- 6.8 4.0 6.4---
2024-06-13 10:30 amWSW 4.0 5.0----1005.0- 6.8 4.0 6.4---
2024-06-13 10:20 amWSW 4.0 5.0----1005.1- 6.6 4.0 6.2---
2024-06-13 10:10 am SW 4.0 5.0----1005.2- 6.1 3.9 5.7---
2024-06-13 10:00 am SW 4.0 4.0----1005.2 +2.0 6.1 3.9 5.7---
2024-06-13 09:50 am W 4.0 4.0----1005.0- 6.5 3.9 6.1---
2024-06-13 09:40 am W 4.0 4.0----1004.9- 6.7 3.9 6.3---
2024-06-13 09:30 amWSW 3.0 4.0----1004.9- 6.2 3.9 5.8---
2024-06-13 09:20 amWSW 3.0 4.0----1004.8- 6.2 3.9 5.8---
2024-06-13 09:10 am W 3.0 4.0----1004.3- 6.6 3.9 6.2---
2024-06-13 09:00 am SW 4.0 6.0----1004.5 +1.2 6.4 3.9 6.0---
2024-06-13 08:50 amWSW 4.0 5.0----1004.4- 6.3 3.9 5.9---
2024-06-13 08:40 amWSW 4.0 4.0----1004.1- 6.4 3.9 6.0---
2024-06-13 08:30 amWSW 4.0 4.0----1004.1- 6.8 3.9 6.4---
2024-06-13 08:20 am SW 4.0 5.0----1003.6- 6.8 3.9 6.4---
2024-06-13 08:10 am SW 4.0 4.0----1003.7- 6.9 3.9 6.5---
2024-06-13 08:00 am SW 4.0 4.0----1003.7 +0.4 7.0 3.9 6.6---
2024-06-13 07:50 am SW 4.0 4.0----1003.6- 7.0 3.9 6.6---
2024-06-13 07:40 am SW 3.0 4.0----1003.6- 7.6- 7.2---
2024-06-13 07:30 am W 4.0 4.0----1003.7- 7.8 3.9 7.4---
2024-06-13 07:20 amWSW 3.0 4.0----1003.7- 6.9 3.9 6.5---
2024-06-13 07:10 amWSW 3.0 3.0----1003.5- 7.2 3.9 6.8---
2024-06-13 07:00 amWSW 3.0 3.0----1003.3 +0.0 7.5 3.9 7.1---
2024-06-13 06:50 am SW 3.0 4.0----1003.1- 7.2 3.9 6.8---
2024-06-13 06:40 am SW 3.0 3.0----1003.3- 7.0 3.9 6.6---
2024-06-13 06:30 amWSW 3.0 4.0----1003.4- 7.2 3.9 6.8---
2024-06-13 06:20 am SW 3.0 4.0----1003.4- 7.3 3.9 6.9---
2024-06-13 06:10 am SW 3.0 4.0----1003.4- 7.0 3.9 6.6---
2024-06-13 06:00 am SW 3.0 3.0----1003.3 +0.0 6.3 3.9 5.9---
2024-06-13 05:50 am SW 3.0 3.0----1003.4- 6.4 3.9 6.0---
2024-06-13 05:40 amSSW 3.0 3.0----1003.3- 6.3 3.8 5.9---
2024-06-13 05:30 am SW 2.0 3.0----1003.4- 6.3 3.9 5.9---
2024-06-13 05:20 amWSW 2.0 3.0----1003.4- 6.5 3.9 6.1---
2024-06-13 05:10 amWSW 2.0 3.0----1003.4- 6.4 3.9 6.0---
2024-06-13 05:00 amWSW 2.0 3.0----1003.4 +0.3 6.6 3.9 6.2---
2024-06-13 04:50 amWSW 2.0 3.0----1003.3- 6.7 3.9 6.3---
2024-06-13 04:40 amWSW 3.0 4.0----1003.4- 6.8 3.9 6.4---
2024-06-13 04:30 am SW 4.0 4.0----1003.4- 7.1 3.9 6.7---
2024-06-13 04:20 am SW 4.0 4.0----1003.2- 7.6 3.9 7.2---
2024-06-13 04:10 am SW 3.0 4.0----1003.2- 7.7 3.9 7.3---
2024-06-13 04:00 am SW 4.0 4.0----1003.4 +0.0 7.9 3.9 7.5---
2024-06-13 03:50 amSSW 4.0 5.0----1003.4- 7.9 3.9 7.5---